Regional Weather Roundup
Issued by NWS Charleston, SC

Current Version | Previous Version | Text Only | Print | Product List | Glossary Off
Versions: 1 2 3 4 5 6 7 8 9 10 11 12 13 14 15 16 17 18 19 20 21 22 23 24 25 26 27 28 29 30 31 32 33 34 35 36 37 38 39 40 41 42 43 44 45 46 47 48 49 50
000 ASUS42 KCHS 212227 RWRCHS Regional Weather Roundup National Weather Service Charleston SC 600 PM EDT SAT APR 21 2018 NOTE: "fair" indicates few or no clouds below 12,000 feet with no significant weather and/or obstructions to visibility. Not all stations are quality controlled. Use data with caution, especially dewpoint observations. SCZ027-030-031-034>040-042>050-212300- ...Southeast South Carolina... CITY SKY/WX TMP DP RH WIND PRES REMARKS N Charleston PTSUNNY 66 50 56 E16 30.32R Waterfront Prk NOT AVBL Mount Pleasant FAIR 64 52 63 NE5 30.32S Johns Island MOCLDY 64 54 68 NE14G22 30.32R Pinopolis N/A 70 52 52 SE7 30.23S Moncks Corner MOCLDY 66 46 48 SE8 30.31S Summerville CLOUDY 68 50 52 E9 30.32R Beaufort MCAS CLOUDY 69 53 56 E10G18 30.29F Beaufort Arpt FAIR 64 52 63 E12G22 30.29F Hilton Head Is MOSUNNY 64 54 68 E9G22 30.30S Walterboro CLOUDY 68 50 52 SE8 30.30S Allendale CLOUDY 70 52 52 CALM 30.27S ...Southern Midlands and Pee Dee... CITY SKY/WX TMP DP RH WIND PRES REMARKS Georgetown FAIR 63 46 55 E9 30.35S Kingstree FAIR 68 43 40 SE9 30.31R Orangeburg PTSUNNY 72 46 39 SE5 30.28S Barnwell CLOUDY 70 50 49 SE10 30.28R Aiken FAIR 70 36 28 SE8 30.31R Manning MOCLDY 68 43 40 S5 30.30R Columbia FAIR 73 34 23 E8 30.28S Sumter FAIR 73 39 29 E9 30.26F Florence FAIR 72 37 28 SE9 30.30F Myrtle Beach FAIR 63 48 58 E14 30.35S N Myrtle Beach FAIR 62 44 51 SE12 30.34S $$ GAZ063-065-086>088-099>101-113>116-118-119-134>141-150-212300- ...Southeast Georgia... CITY SKY/WX TMP DP RH WIND PRES REMARKS Savannah Arpt CLOUDY 68 54 60 E13 30.28S Hunter AAF FAIR 66 54 63 E17 30.25S Fort Stewart CLOUDY 68 54 62 E9 30.25S Statesboro CLOUDY 70 50 49 SE7 30.28R Sylvania MOCLDY 70 57 64 SE6 30.28S Claxton CLOUDY 70 56 61 E6 30.27S ...CSRA, Central and far Southeast Georgia... CITY SKY/WX TMP DP RH WIND PRES REMARKS Thomson CLOUDY 71 36 27 S6 30.31S Augusta-Bush CLOUDY 73 45 36 SE3 30.26S Augusta-Daniel CLOUDY 74 38 27 S7 30.27S Swainsboro CLOUDY 70 55 60 SE10G16 30.27R Vidalia CLOUDY 70 57 64 E10 30.26S Eastman CLOUDY 70 48 46 E5 30.28R Hazlehurst CLOUDY 67 58 72 SE6 30.25R Alma CLOUDY 65 60 84 VRB7 30.24F Waycross CLOUDY 65 62 90 E10 30.24S Jesup NOT AVBL Baxley DRIZZLE 61 61 100 E5 30.25S Brunswick CLOUDY 64 59 82 E12 30.25S Saint Simons CLOUDY 69 61 75 NE15 30.23F $$ SCZ027-028-034-036>038-045-046-048>050-GAZ119-141-212300- ...Lake and Supplemental Coastal Observations... STATION/POSITION TIME TEMP WIND PRES WAVE SWELL AIR SEA DIR/SP/G HT/PER HT/PER/DIR (UTC) (F) (DEG/KT/KT) (MB) (FT/S) (FT/S/D) Winyah Bay 2145 62 80/ 11 1028.0S Lake Murray 2120 71 200/ 5/ 6 1024.7 ACE Basin NERRS 2145 68 350/ 6 N/A Fort Pulaski 2200 63 65 70/ 17/ 22 1025.7 Sapelo Island 2200 67 60/ 11 1024.0 $$ ANZ835-935-AMZ111-154-330-350-352-354-370-450-454-472-212300- ...C-MAN and Buoy Observations... STATION/POSITION TIME TEMP WIND PRES WAVE SWELL AIR SEA DIR/SP/G HT/PER HT/PER/DIR (UTC) (F) (DEG/KT/KT) (MB) (FT/S) (FT/S/D) Buoy 41004 2210 66 67 70/ 16/ 21 1026.1 Buoy 41008 2150 66 65 70/ 12/ 14 1024.0F 5/ 8 5/ 90/ 8 Folly Beach CMAN 2200 63 60/ 19/ 21 1027.1S Capers Nearshore 2208 63 63 60/ 17/ 21 1026.7F Fripp Nearshore 2208 63 64 60/ 16/ 23 1025.2F STATION/POSITION TIME TEMP WIND PRES WAVE SWELL AIR SEA DIR/SP/G HT/PER HT/PER/DIR (UTC) (F) (DEG/KT/KT) (MB) (FT/S) (FT/S/D) 5E St. Marys GA 2200 66 N/A 5/ 7 Frying Pan Buoy 2210 63 67 60/ 14/ 17 1027.5 Buoy 41025 2210 57 72 40/ 8/ 12 1029.6 Cape Lookout NC 2200 90/ 12/ 13 1028.7F Buoy 41002 2210 65 72 50/ 14/ 17 1025.8 Buoy 41010 2210 72 76 70/ 19/ 25 1022.3 St Augustine FL 2200 70 67 90/ 14/ 16 1022.7R $$

USA.gov is the U.S. government's official web portal to all federal, state and local government web resources and services.